Theta_e
329 331 334 335 338 336 334 328 320 321 319 318 318 320 323 325 329 334 327 327 327 325 318 309 314 319 319 314 317 315 320 318 319 320 319 319 319 319 318 317 320 319 317 317 316 311 309 308 306
330 331 334 337 335 335 331 322 319 317 318 318 317 321 320 325 327 328 326 326 324 320 318 309 306 307 308 304 307 311 317 318 318 318 318 318 317 317 317 318 317 317 317 316 310 305 303 302 302
329 333 332 335 331 334 331 321 317 318 318 318 317 317 319 324 325 324 324 322 322 322 318 312 305 307 305 303 304 304 311 316 314 313 316 317 316 316 315 316 314 315 316 313 305 303 302 302 301
328 334 334 330 331 328 323 318 318 318 317 317 318 318 318 324 324 323 322 322 321 321 320 317 304 306 304 303 303 302 303 304 306 305 305 303 306 305 305 308 310 305 303 304 303 302 302 302 301
327 332 332 333 333 324 320 320 320 317 317 317 316 316 319 322 322 321 321 321 319 320 317 315 304 307 304 303 302 302 302 302 302 302 302 302 302 302 302 303 304 303 303 302 302 302 302 302 302
327 333 332 333 331 325 321 322 319 317 317 316 317 319 318 320 320 318 320 320 318 317 316 311 304 308 304 302 302 302 302 302 302 302 302 302 302 302 302 302 302 302 302 302 302 302 302 302 302
328 330 334 332 330 328 322 322 320 318 317 317 317 317 320 320 317 315 319 319 317 317 313 314 309 305 303 303 302 302 302 302 302 302 302 301 301 301 301 302 301 301 301 302 302 302 302 302 302
332 331 333 330 330 327 322 322 321 321 319 317 316 316 317 318 318 316 318 318 317 315 313 313 313 311 308 308 304 302 302 302 301 301 301 302 303 302 302 301 301 301 301 301 302 302 302 302 302
331 328 329 329 330 324 323 322 321 320 319 318 317 318 318 315 317 317 318 317 316 314 313 314 313 312 311 311 309 305 302 302 302 302 302 302 303 303 302 301 301 301 301 301 301 301 302 302 302
329 326 330 325 325 323 323 322 321 319 318 318 317 318 318 316 314 317 318 317 315 314 313 314 313 313 312 311 310 307 305 303 303 303 302 302 302 302 302 302 301 301 301 301 301 301 301 301 301
327 329 325 325 326 324 323 322 322 319 317 318 318 318 318 317 314 315 316 316 314 313 312 312 313 313 312 309 308 306 305 304 303 303 303 302 301 301 302 302 302 302 301 302 301 301 301 301 301
323 324 323 325 323 323 322 322 321 320 319 319 319 319 317 315 314 314 315 315 315 314 312 310 311 311 310 309 306 306 305 305 304 303 303 302 302 302 302 302 302 302 302 302 301 301 301 301 301
320 322 321 321 320 320 318 318 319 319 320 320 319 318 318 317 315 315 316 315 315 315 314 312 309 309 307 307 306 306 305 305 305 304 304 303 303 302 302 302 302 302 302 302 302 302 301 301 301
318 319 319 318 317 317 315 315 316 317 318 319 319 318 318 317 315 316 317 318 317 316 315 314 311 308 307 306 306 305 305 305 304 304 304 303 303 303 303 303 303 303 302 302 302 302 301 302 301
318 316 315 316 317 316 317 314 315 317 317 318 319 318 317 317 316 316 317 317 317 316 316 315 314 310 307 306 305 305 305 305 304 304 304 304 304 303 303 303 303 303 303 303 302 302 302 302 302
317 315 316 317 317 318 316 315 318 317 317 317 318 318 317 316 317 316 317 317 317 316 316 315 314 312 308 307 305 305 305 305 304 304 304 304 304 304 304 304 304 303 304 304 304 303 303 303 302
316 316 316 319 317 316 314 314 317 318 317 316 316 317 317 316 317 317 316 317 316 316 315 315 314 312 310 308 307 306 305 305 305 305 305 305 305 305 306 305 305 305 305 306 306 305 305 305 304
315 316 314 317 315 315 315 313 313 316 317 317 316 317 316 316 316 317 316 316 316 315 315 315 314 313 311 309 308 307 306 306 306 306 306 306 306 307 307 307 307 307 307 307 307 307 306 306 306
316 315 314 315 316 315 312 312 312 315 316 315 316 317 317 316 316 316 316 316 316 316 315 314 314 313 311 309 308 307 307 307 307 307 307 308 308 309 309 310 309 308 308 307 307 307 307 307 306
316 316 314 316 315 314 312 311 311 313 314 316 316 316 317 317 316 316 316 316 316 315 314 313 313 312 311 310 309 308 308 307 307 308 309 310 310 310 311 311 310 309 309 309 309 308 307 307 306
317 316 315 315 314 313 313 313 314 313 316 316 317 318 318 318 317 316 316 316 315 315 314 313 312 311 311 310 309 309 308 308 309 310 311 311 311 311 311 311 311 310 310 309 309 308 308 307 307
317 315 315 316 314 315 314 316 311 315 313 313 316 318 319 318 317 317 316 316 316 315 314 313 312 311 311 310 310 309 309 309 310 310 311 312 311 312 311 311 311 310 310 310 310 309 308 308 308
316 315 315 315 314 315 316 315 313 313 315 313 313 318 318 319 318 317 317 316 316 316 314 313 312 312 311 311 310 310 310 310 310 311 312 312 312 311 311 311 311 311 311 310 310 310 309 309 308
315 315 315 316 315 318 316 315 313 315 315 313 313 317 317 318 318 317 317 317 317 316 315 314 313 312 312 311 311 310 311 311 312 312 312 312 312 312 312 311 311 311 311 311 311 310 310 309 309
314 312 315 323 320 316 316 315 315 316 314 314 314 317 317 317 318 317 317 317 317 317 315 314 313 313 312 311 311 311 312 312 312 312 313 313 313 314 313 312 312 312 312 311 311 311 310 309 309
312 311 316 323 326 322 317 317 319 316 318 319 319 318 318 317 317 317 317 317 317 317 316 315 314 313 312 312 312 312 312 313 313 313 314 317 318 318 317 316 315 314 312 311 311 310 310 309 308
315 313 313 317 316 318 317 318 318 318 316 314 316 317 317 317 317 317 316 317 317 317 316 315 314 313 313 313 313 313 313 313 314 315 320 321 321 320 319 318 317 315 314 312 311 310 309 308 308
314 313 314 312 315 323 321 319 320 318 316 313 312 316 317 317 317 316 316 316 316 316 315 315 314 313 313 313 313 313 314 314 316 321 322 321 320 319 319 318 317 316 314 312 311 311 309 308 308
310 312 313 311 315 320 325 325 319 317 314 313 312 317 318 317 316 316 316 316 315 315 315 314 313 313 313 313 314 314 315 316 321 322 322 321 320 319 318 317 317 316 315 313 312 311 310 309 308
309 311 311 314 314 315 318 319 318 318 315 315 315 317 318 317 317 316 316 316 315 315 314 314 314 314 314 314 315 316 317 319 322 322 322 321 320 319 318 316 315 315 315 314 314 313 313 312 312
Wind_Speed
9 8 11 8 4 4 1 3 4 4 4 6 4 6 10 8 3 3 11 10 13 5 4 5 8 11 8 8 10 9 10 10 11 12 13 13 12 13 13 14 15 15 12 13 14 15 16 16 14
7 8 6 2 3 2 1 1 7 4 6 5 7 13 6 2 4 13 15 10 8 6 5 7 6 8 7 7 8 9 10 9 10 11 10 11 11 12 14 12 14 11 13 13 13 16 17 17 15
7 6 5 3 2 2 4 2 7 8 4 2 4 8 5 4 8 15 15 12 11 9 5 5 4 6 6 8 8 8 9 10 9 10 10 10 10 11 12 12 11 12 11 12 14 15 16 17 16
8 2 4 2 3 5 7 7 14 10 6 2 9 9 8 4 10 8 18 18 14 9 6 5 3 5 6 7 7 7 8 8 9 9 9 9 10 10 11 11 11 11 12 12 13 15 16 16 15
5 3 1 3 0 2 5 16 14 7 8 3 3 5 8 7 6 10 21 19 15 13 9 6 4 4 5 6 6 6 6 7 8 8 8 8 9 9 10 10 11 11 11 12 12 13 14 14 14
4 1 1 2 3 5 4 12 14 11 10 5 7 8 5 8 9 16 20 16 12 11 7 5 3 5 4 5 4 4 5 5 6 6 6 7 7 7 8 9 10 10 10 10 11 11 12 12 13
2 2 4 2 3 3 5 12 6 8 10 3 3 4 12 14 9 14 18 14 12 11 8 3 3 4 3 3 4 3 3 4 5 5 5 5 6 6 8 8 9 9 9 10 10 10 10 10 11
2 3 4 3 4 2 5 5 8 10 3 7 3 7 7 20 13 15 19 15 15 11 9 6 4 1 2 1 1 2 2 2 3 3 4 4 4 4 7 7 7 7 7 7 8 8 9 8 9
1 3 3 5 1 5 11 4 4 6 7 4 4 6 6 17 17 18 21 19 17 13 11 8 5 3 3 2 1 3 1 2 2 3 3 5 5 6 7 8 8 7 7 6 6 6 6 7 6
2 3 2 4 3 5 9 5 9 4 8 6 8 7 12 17 19 22 26 24 21 18 15 11 8 7 6 4 4 4 3 3 2 2 3 4 6 8 9 9 8 8 8 9 8 9 7 8 8
2 3 2 4 7 4 10 7 8 7 4 14 19 21 19 19 19 21 23 22 20 17 15 16 14 12 11 9 8 6 5 3 4 4 5 5 5 6 7 7 8 9 10 10 10 10 10 10 10
1 1 4 2 2 2 1 2 4 10 9 3 18 16 20 20 21 22 22 22 20 19 16 17 17 16 14 12 11 8 6 5 5 5 5 5 6 7 8 9 10 10 10 11 12 12 11 11 11
2 2 2 3 1 3 4 2 4 9 14 12 8 21 20 18 17 18 16 16 17 18 16 16 17 17 16 14 12 10 9 7 6 7 5 6 6 7 8 8 9 10 11 11 11 12 12 12 12
3 1 4 4 4 4 2 5 6 11 19 17 16 17 18 17 17 17 19 19 20 18 17 15 17 16 16 15 13 11 10 10 9 9 8 7 8 8 9 9 10 11 13 13 13 13 13 13 13
3 2 5 6 6 4 6 7 11 25 10 21 21 18 19 19 16 20 19 22 21 21 18 18 15 15 16 15 13 12 11 11 11 10 11 10 10 9 10 11 12 13 13 14 14 15 15 16 15
2 1 1 5 10 5 5 9 9 18 17 21 23 22 21 23 22 19 22 20 23 23 23 20 18 16 15 15 14 13 12 12 11 11 11 11 10 10 10 12 12 13 15 15 15 15 16 17 17
2 3 5 2 14 4 5 7 8 18 22 20 21 24 24 22 25 23 24 25 22 26 24 23 21 17 14 14 14 14 13 12 11 11 10 10 10 10 11 11 12 13 15 15 15 16 17 17 17
3 3 3 5 7 7 5 11 9 14 26 24 23 26 29 28 27 27 26 26 24 24 24 22 21 18 15 13 14 14 14 12 11 9 9 10 11 11 12 12 12 14 16 16 16 17 18 20 20
2 2 4 1 3 4 8 10 12 23 28 27 27 25 26 32 25 24 24 27 26 24 27 26 23 19 17 16 15 14 11 11 10 9 9 9 10 11 13 14 14 15 17 17 17 19 19 20 20
3 4 6 1 4 3 6 12 12 15 16 36 32 29 28 26 32 29 26 28 30 27 26 26 25 21 18 16 14 13 10 11 10 9 8 8 10 11 13 14 15 16 18 18 19 20 21 22 20
3 3 3 3 5 5 3 9 6 8 20 31 38 32 29 30 33 32 31 30 28 28 27 26 24 21 18 15 14 15 14 12 10 7 8 9 11 12 15 16 17 19 20 21 21 21 22 23 22
3 1 2 3 4 3 3 5 7 5 8 9 31 33 27 29 30 32 32 31 28 25 24 24 23 22 19 17 17 16 13 12 8 10 11 12 14 15 16 18 19 21 22 23 22 23 24 25 25
5 0 2 2 2 4 4 2 8 3 5 10 20 29 28 28 31 35 33 29 24 23 23 22 21 20 19 18 16 15 15 12 11 12 13 15 16 18 19 21 21 22 21 22 22 23 23 24 26
2 2 2 2 2 2 6 7 6 5 9 5 11 29 30 27 32 32 30 26 23 21 22 21 21 19 18 18 16 15 13 12 13 12 15 16 19 20 20 20 20 20 20 20 19 20 22 24 26
2 5 3 2 1 6 4 4 10 5 8 11 20 33 32 32 30 32 32 33 28 25 24 23 22 20 19 18 17 15 13 13 12 12 14 16 16 17 17 18 18 18 18 19 20 20 22 23 26
5 7 5 5 3 4 5 6 7 7 22 23 30 33 32 31 31 33 34 31 30 27 25 24 22 21 20 18 16 15 13 13 12 11 11 12 13 14 15 17 18 17 17 18 20 21 22 23 25
3 4 5 1 3 2 4 8 11 3 3 9 24 30 34 32 31 30 31 34 31 28 26 24 22 21 20 18 16 15 14 13 9 7 7 8 11 13 13 14 15 16 17 18 19 21 21 23 24
3 2 2 2 3 5 6 5 7 4 6 5 10 30 34 30 29 29 30 30 31 29 25 23 22 21 19 18 17 16 14 12 10 8 4 7 10 12 13 12 13 14 14 16 18 19 19 21 22
2 3 4 3 5 5 3 6 6 8 9 12 15 33 35 32 30 29 28 28 28 27 26 25 25 24 23 21 19 17 16 14 13 9 5 7 10 13 14 14 14 14 14 15 16 17 18 19 20
6 9 6 5 5 4 4 7 5 5 9 17 23 30 32 30 29 28 26 27 28 29 28 28 26 25 23 21 20 19 18 19 17 11 6 7 10 13 15 15 15 14 14 14 15 16 17 19 19
Wind_Direction
332 345 338 328 41 62 139 55 100 67 65 75 53 82 115 64 50 156 139 178 200 215 195 158 142 132 129 115 104 106 95 94 87 77 75 77 73 74 59 71 63 64 53 61 51 50 47 45 52
328 345 348 326 82 79 12 84 89 78 114 117 66 129 50 81 111 143 147 194 209 211 204 167 147 128 123 118 110 109 100 94 99 90 88 79 74 72 76 59 68 65 61 55 56 51 46 42 46
314 338 310 109 120 170 122 155 131 115 90 76 107 79 85 99 119 140 167 168 178 203 159 164 142 136 125 119 108 101 101 105 94 93 89 82 81 76 71 67 67 67 61 56 53 51 48 45 47
354 359 263 88 207 331 131 159 140 122 110 101 114 80 88 118 144 149 156 170 185 200 221 248 190 145 133 126 112 99 91 96 89 87 83 77 70 64 62 66 61 57 53 51 50 48 46 45 51
325 270 344 271 10 134 130 145 139 148 128 128 112 137 102 125 179 158 159 182 193 199 221 236 191 153 139 127 112 94 88 90 88 87 82 74 66 59 54 52 54 49 47 47 48 50 49 49 55
309 316 20 294 144 154 114 113 103 126 141 121 105 109 133 177 195 166 170 182 203 205 216 201 182 167 132 115 110 92 77 72 80 85 78 71 67 67 60 55 52 45 42 42 41 41 42 47 55
162 80 245 255 234 126 160 138 120 145 127 109 124 83 146 178 188 164 165 185 197 217 224 217 215 182 140 112 94 92 77 67 73 76 75 70 64 58 52 48 46 38 33 31 33 34 35 41 48
302 108 290 265 197 127 150 100 103 89 100 138 152 161 175 187 182 166 168 184 203 227 229 232 189 202 186 146 66 66 61 57 70 69 68 64 73 64 63 46 41 30 29 28 25 24 25 29 32
288 51 301 306 219 163 137 107 123 118 130 129 140 167 178 167 177 171 174 188 202 220 226 237 231 233 218 196 322 355 9 20 35 42 26 25 28 22 24 14 22 21 15 19 21 27 23 19 17
126 95 258 350 51 150 153 131 157 148 139 133 143 142 161 172 182 183 185 193 202 212 205 228 231 243 256 265 276 303 290 335 346 351 356 359 355 356 2 360 355 5 360 5 3 7 12 9 3
186 185 339 16 42 117 152 138 167 150 197 194 182 178 186 189 190 195 196 207 212 217 213 210 218 228 248 254 261 269 269 296 311 330 346 342 333 328 316 335 341 349 349 348 353 354 351 354 351
74 127 81 144 57 8 68 186 188 186 208 166 215 213 194 198 199 201 203 208 215 221 221 216 219 225 230 240 251 268 274 286 299 304 307 309 308 310 315 328 332 337 339 338 342 341 341 339 336
238 219 97 168 236 244 293 285 243 238 236 224 204 193 202 206 210 209 215 216 219 228 232 229 227 227 233 234 241 252 262 272 277 285 286 296 297 301 310 315 321 325 326 331 329 329 328 326 324
328 172 208 201 228 235 219 258 246 244 224 196 203 198 205 213 218 208 211 217 221 233 238 238 237 233 231 236 240 244 255 270 277 285 297 299 299 306 308 312 316 323 323 324 323 322 320 321 318
300 325 304 224 216 244 202 294 231 231 225 201 197 208 210 219 221 217 216 216 224 232 242 243 244 243 238 236 240 246 253 261 272 286 294 302 306 308 309 311 315 317 315 316 318 319 316 315 316
234 61 191 262 185 207 132 271 279 217 203 207 208 210 213 217 223 225 221 224 220 230 234 243 247 247 240 237 242 249 253 263 269 276 284 295 302 306 308 309 313 312 314 316 316 315 315 315 316
302 237 205 275 186 144 166 272 277 194 198 206 211 216 221 221 219 223 221 224 224 225 233 237 247 249 241 237 240 248 254 256 263 266 276 285 292 299 304 308 309 307 310 315 318 319 317 317 317
279 268 288 197 228 186 205 256 270 210 197 211 216 222 220 219 218 219 220 220 227 224 231 239 247 252 249 242 239 241 246 253 259 264 273 283 294 301 306 310 311 308 310 317 318 319 317 318 320
300 329 307 240 200 180 231 257 258 245 223 217 217 221 222 218 224 222 221 219 222 227 225 231 238 244 244 243 240 242 251 257 261 273 282 289 296 303 306 310 310 308 308 309 310 312 312 316 317
2 321 302 338 203 215 271 263 248 240 220 215 216 218 222 223 215 214 216 217 222 226 224 226 234 240 244 245 246 246 252 254 262 267 277 285 293 297 299 303 304 300 299 303 306 304 305 308 311
330 253 264 239 322 275 319 293 267 247 220 214 219 219 219 223 214 209 210 216 222 225 224 226 231 237 241 241 239 238 238 244 251 267 285 295 294 295 297 300 300 299 297 299 298 299 299 301 303
289 294 342 327 38 257 102 286 302 232 210 199 213 213 219 217 214 210 209 214 221 225 224 226 229 232 235 235 235 237 241 247 258 275 287 295 297 303 304 303 303 303 300 299 299 296 296 295 299
219 271 273 286 307 356 300 134 268 157 215 211 209 204 211 211 209 207 211 218 224 222 219 217 219 225 228 231 234 238 240 246 256 268 283 293 297 300 304 306 305 303 300 299 297 294 294 293 293
161 334 360 19 90 319 238 165 274 198 209 205 211 210 213 206 203 211 216 220 223 220 217 214 213 217 221 225 226 231 237 245 258 276 290 301 306 309 310 308 305 303 302 301 298 294 290 291 292
85 59 336 346 344 230 313 154 250 257 239 195 199 210 210 205 199 202 209 213 217 216 213 214 214 215 217 222 224 225 233 246 264 281 295 302 306 309 308 301 301 301 303 303 301 299 296 293 289
179 158 167 233 226 279 338 238 254 237 240 229 205 203 205 203 204 207 211 211 213 215 214 214 214 214 216 221 223 227 233 246 262 278 290 302 310 313 310 307 306 305 302 300 297 296 296 294 292
209 187 194 169 301 22 244 284 301 227 53 174 187 192 193 197 201 204 205 214 214 217 217 214 215 215 217 220 222 226 231 239 250 256 276 310 319 320 316 311 310 308 306 302 299 300 302 299 297
154 213 85 357 235 252 280 268 239 254 218 188 174 184 193 199 202 204 205 207 214 218 217 216 217 219 220 220 221 222 226 228 218 220 260 323 330 330 328 321 315 312 310 307 304 305 304 301 303
115 264 215 165 168 193 288 266 221 234 223 194 200 193 195 197 202 203 206 209 211 212 212 214 215 215 216 217 217 217 216 212 205 209 243 319 331 333 332 326 321 318 317 314 309 309 307 305 307
175 189 165 136 253 232 158 273 272 300 224 212 201 201 200 203 205 208 210 210 209 210 211 214 214 215 217 217 216 213 210 206 206 212 241 300 330 334 332 325 321 318 317 315 312 312 311 309 310